sat.trackr.live / text

‹ back to catalog

STARLINK-4058

NORAD 53266 · 2022-086AA

PAYLOAD ACTIVE UNKNOWN

§ Identity

Operator
Country
US
Launch date
2022-07-24
Launch site
AFETR
Launch vehicle
Mass (kg)
RCS (m²)

Purposes: comms

External: N2YO · Heavens-Above · Gunter

§ Orbital elements

Epoch: 2026-05-24T23:17:18.043008Z

Period
95.44 min
Inclination
53.2116°
Eccentricity
0.0000919
Mean motion
15.08840415 rev/d
Perigee alt
539.1 km
Apogee alt
540.4 km
Semi-major
6,917.9 km
B*
1.1199e-5
RAAN
211.6848°
Arg perigee
79.6502°
Mean anomaly
280.4594°
Rev number
21,258

§ Raw data

STARLINK-40581 53266U 22086AA  26144.97034772 -.00000109  00000+0  11199-4 0  99912 53266  53.2116 211.6848 0000919  79.6502 280.4594 15.08840415212586

JSON: /api/v1/satellites/53266 · /tle

For live sub-satellite position, see the globe view (requires WebGL).

§ Visibility from observer

Set your observer location to see the next 7 days of passes ≥ 10°. The values pass through the URL so the page stays shareable.

No JS? Fill the form by hand. The geolocation button needs JavaScript.